Tracking 32963 objects as of 22-Jan-2026
HD Live streaming from Space Station
objects crossing your sky now

STARLINK-5120

Track STARLINK-5120 now!
10-day predictions
STARLINK-5120 is classified as:


NORAD ID: 53982
Int'l Code: 2022-125U
Perigee: 546.1 km
Apogee: 547.8 km
Inclination: 53.2 °
Period: 95.4 minutes
Semi major axis: 6917 km
RCS: Unknown
Launch date: October 5, 2022
Source: United States (US)
Launch site: AIR FORCE WESTERN TEST RANGE (AFWTR)
Your satellite tracking list
Your tracking list is empty




NASA's NSSDC Master Catalog

Two Line Element Set (TLE):
1 53982U 22125U   26021.40503670 -.00004779  00000-0 -28258-3 0  9992
2 53982  53.2162  66.4262 0001228 103.1005 257.0125 15.08813583182316
Source of the keplerian elements: AFSPC